User: anonymous   Login
Location: Ayer Observatory
(42.2600°N, 71.0700°W)
Time: 05:31:32
(UTC-04:00)
Language:

XW-2A - Orbit

View from above orbital plane
View from above orbital plane
View from above satellite
View from above satellite

Ground track
Ground track

The orbit data is extracted from the following two-line orbital elements,

1 40903U 15049E   20226.77084961  .00001787  00000-0  41982-4 0  9990
2 40903  97.2831 275.7538 0014605  58.9308  77.9595 15.43280520275314
Epoch (UTC): 13 August 2020 18:30:01
Eccentricity: 0.0014605
inclination: 97.2831°
perigee height: 426 km
apogee height: 446 km
right ascension of ascending node: 275.7538°
argument of perigee: 58.9308°
revolutions per day: 15.43280520
mean anomaly at epoch: 77.9595°
orbit number at epoch: 27531

The dashed part of the orbit path shows where the satellite is in the earth's shadow,  

DLR